Location: Newark
(39.0622°N, 106.5590°E)
Time: 19:08:51
(UTC+00:00)

Vanguard 2 Rocket - Pass Details

Date: 28 January 2020
Orbit: 554 x 3327 km, 32.9° (Epoch: 19 February)

Event Time Altitude Azimuth Distance (km) Brightness Sun altitude
Rises 23:34:08 0° 263° (W) 2,884 - -6.2°
Exits shadow 23:34:58 - 260° (W) 2,558 8.7 -6.0°
Reaches altitude 10° 23:36:10 10° 255° (WSW) 2,114 8.3 -5.8°
Maximum altitude 23:40:40 42° 184° (S) 1,216 7.7 -5.0°
Drops below altitude 10° 23:47:42 10° 116° (ESE) 3,295 11.7 -3.7°
Sets 23:51:40 0° 111° (ESE) 4,735 14.3 -3.0°
